Owls Head, ME

2:07 PM EST on March 01, 2017 (GMT -0500)
Knox County Regional

Weather History for KRKD - September, 2013

Change the Weather History Date:

Monday, September 2, 2013

  Actual Average Record
Temperature  
Mean Temperature 62 °F -  
Max Temperature 64 °F 68 °F 89 °F (2010)
Min Temperature 59 °F 52 °F 44 °F (2001)
Degree Days  
Heating Degree Days 4    
Growing Degree Days 12 (Base 50)    
Moisture  
Dew Point 63 °F    
Average Humidity 99    
Maximum Humidity 100    
Minimum Humidity 94    
Precipitation  
Precipitation 2.34 in - - ()
Sea Level Pressure  
Sea Level Pressure 29.87 in    
Wind  
Wind Speed 8 mph (ENE)    
Max Wind Speed 15 mph    
Max Gust Speed 22 mph    
Visibility 4 miles    
Events Thunderstorm    
Averages and records for this station are not official NWS values.
T = Trace of Precipitation, MM = Missing Value Source: NWS Daily Summary

Daily Weather History Graph

Daily Weather History Graph

Search for Another Location

Airport or City:

Trip Planner

Search our weather history database for the weather conditions in past years. The results will help you decide how hot, cold, wet, or windy it might be!

Date:

Astronomy

Sep. 02, 2013 Rise Set
Actual Time 6:00 AM EDT 7:10 PM EDT
Civil Twilight 5:31 AM EDT 7:39 PM EDT
Nautical Twilight 4:55 AM EDT 8:15 PM EDT
Astronomical Twilight 4:18 AM EDT 8:52 PM EDT
Moon 3:10 AM EDT (9/2) 5:24 PM EDT (9/2)
Length of Visible Light 14h 08m
Length of Day
13h 09m
Waning Crescent, 8% of the Moon is Illuminated
Sep 2
Waning Crescent
Sep 5
New
Sep 12
First Quarter
Sep 19
Full
Sep 26
Last Quarter

Hourly Weather History & Observations

Time (EDT) Temp. Dew Point Humidity Pressure Visibility Wind Dir Wind Speed Gust Speed Precip Events Conditions
12:15 AM 64.4 °F 64.4 °F 100% 29.93 in 0.8 mi East 6.9 mph - N/A   Overcast
12:35 AM 64.4 °F 62.6 °F 94% 29.92 in 0.8 mi NE 6.9 mph - N/A   Overcast
12:55 AM 64.4 °F 64.4 °F 100% 29.93 in 1.0 mi NE 8.1 mph - N/A   Overcast
1:15 AM 64.4 °F 64.4 °F 100% 29.93 in 0.8 mi ENE 6.9 mph - N/A   Overcast
1:35 AM 64.4 °F 64.4 °F 100% 29.93 in 0.8 mi ENE 5.8 mph - N/A   Overcast
1:55 AM 64.4 °F 64.4 °F 100% 29.93 in 1.5 mi ENE 8.1 mph - N/A   Overcast
2:15 AM 62.6 °F 62.6 °F 100% 29.93 in 1.5 mi ENE 5.8 mph - 0.03 in   Overcast
2:35 AM 62.6 °F 62.6 °F 100% 29.92 in 4.0 mi ENE 6.9 mph - 0.09 in Thunderstorm Overcast
2:55 AM 62.6 °F 62.6 °F 100% 29.92 in 5.0 mi ENE 9.2 mph - 0.17 in   Overcast
3:15 AM 62.6 °F 62.6 °F 100% 29.92 in 8.0 mi ENE 9.2 mph - 0.02 in   Overcast
3:35 AM 62.6 °F 62.6 °F 100% 29.91 in 9.0 mi NE 6.9 mph - 0.02 in Thunderstorm Overcast
3:55 AM 62.6 °F 62.6 °F 100% 29.93 in 8.0 mi NE 4.6 mph - 0.02 in   Overcast
4:15 AM 62.6 °F 60.8 °F 94% 29.93 in 5.0 mi ENE 13.8 mph - 0.11 in Thunderstorm Thunderstorm
4:35 AM 62.6 °F 62.6 °F 100% 29.93 in 5.0 mi ENE 13.8 mph - 0.22 in   Overcast
4:55 AM 62.6 °F 62.6 °F 100% 29.92 in 5.0 mi ENE 13.8 mph 20.7 mph 0.33 in Thunderstorm Overcast
5:15 AM 60.8 °F 60.8 °F 100% 29.93 in 5.0 mi ENE 15.0 mph 18.4 mph 0.04 in   Overcast
5:35 AM 60.8 °F 60.8 °F 100% 29.93 in 5.0 mi ENE 13.8 mph 21.9 mph 0.22 in Thunderstorm Overcast
5:55 AM 60.8 °F 60.8 °F 100% 29.94 in 8.0 mi East 12.7 mph 19.6 mph 0.26 in   Overcast
6:15 AM 60.8 °F 60.8 °F 100% 29.94 in 10.0 mi ENE 15.0 mph 19.6 mph 0.01 in   Overcast
6:35 AM 59.0 °F 59.0 °F 100% 29.94 in 10.0 mi ENE 12.7 mph 20.7 mph 0.01 in   Overcast
6:55 AM 59.0 °F 59.0 °F 100% 29.94 in 10.0 mi ENE 12.7 mph 21.9 mph 0.01 in   Overcast
7:15 AM 59.0 °F 59.0 °F 100% 29.94 in 10.0 mi NE 11.5 mph 19.6 mph N/A   Overcast
7:35 AM 59.0 °F 59.0 °F 100% 29.93 in 10.0 mi NE 8.1 mph - N/A   Overcast
7:55 AM 60.8 °F 59.0 °F 94% 29.93 in 10.0 mi NNE 8.1 mph - N/A   Overcast
8:15 AM 60.8 °F 60.8 °F 100% 29.93 in 10.0 mi NNE 9.2 mph 16.1 mph N/A   Overcast
8:35 AM 60.8 °F 60.8 °F 100% 29.93 in 9.0 mi ENE 10.4 mph - N/A   Overcast
8:55 AM 60.8 °F 60.8 °F 100% 29.93 in 3.0 mi East 10.4 mph 17.3 mph 0.02 in   Overcast
9:15 AM 60.8 °F 60.8 °F 100% 29.92 in 2.0 mi ENE 10.4 mph 17.3 mph 0.01 in   Overcast
9:35 AM 60.8 °F 60.8 °F 100% 29.91 in 3.0 mi ENE 13.8 mph 19.6 mph 0.04 in   Overcast
9:55 AM 60.8 °F 60.8 °F 100% 29.91 in 4.0 mi East 10.4 mph 17.3 mph 0.06 in   Overcast
10:15 AM 60.8 °F 60.8 °F 100% 29.91 in 2.0 mi East 8.1 mph 17.3 mph 0.01 in   Overcast
10:35 AM 60.8 °F 60.8 °F 100% 29.91 in 1.0 mi East 10.4 mph 16.1 mph 0.01 in   Overcast
10:55 AM 60.8 °F 60.8 °F 100% 29.90 in 1.2 mi East 12.7 mph - 0.01 in   Overcast
11:15 AM 60.8 °F 60.8 °F 100% 29.90 in 1.0 mi East 9.2 mph 19.6 mph N/A   Overcast
11:35 AM 60.8 °F 60.8 °F 100% 29.91 in 2.0 mi East 6.9 mph - 0.03 in Thunderstorm Thunderstorm
11:55 AM 62.6 °F 62.6 °F 100% 29.89 in 5.0 mi East 6.9 mph - 0.20 in   Overcast
12:15 PM 62.6 °F 60.8 °F 94% 29.88 in 4.0 mi East 8.1 mph - 0.02 in   Overcast
12:35 PM 62.6 °F 62.6 °F 100% 29.88 in 3.0 mi East 5.8 mph - 0.02 in   Overcast
12:55 PM 62.6 °F 60.8 °F 94% 29.88 in 3.0 mi East 9.2 mph - 0.06 in   Overcast
1:15 PM 62.6 °F 62.6 °F 100% 29.87 in 5.0 mi East 9.2 mph - 0.01 in   Overcast
1:35 PM 64.4 °F 64.4 °F 100% 29.86 in 2.5 mi East 8.1 mph - 0.02 in   Overcast
1:55 PM 64.4 °F 64.4 °F 100% 29.86 in 0.8 mi East 6.9 mph - 0.02 in   Overcast
2:15 PM 64.4 °F 64.4 °F 100% 29.85 in 0.5 mi East 5.8 mph - N/A   Overcast
2:35 PM 64.4 °F 64.4 °F 100% 29.85 in 0.2 mi ENE 4.6 mph - N/A   Overcast
2:55 PM 64.4 °F 62.6 °F 94% 29.84 in 0.5 mi East 5.8 mph - N/A   Overcast
3:15 PM 64.4 °F 64.4 °F 100% 29.84 in 0.8 mi ENE 6.9 mph - N/A   Overcast
3:35 PM 64.4 °F 64.4 °F 100% 29.84 in 1.2 mi ENE 3.5 mph - N/A   Overcast
3:55 PM 64.4 °F 64.4 °F 100% 29.83 in 1.8 mi NE 5.8 mph - N/A   Overcast
4:15 PM 64.4 °F 64.4 °F 100% 29.83 in 0.5 mi NE 3.5 mph - 0.01 in   Overcast
4:35 PM 64.4 °F 64.4 °F 100% 29.82 in 2.0 mi NE 4.6 mph - 0.04 in   Overcast
4:55 PM 64.4 °F 64.4 °F 100% 29.83 in 2.0 mi NNE 3.5 mph - 0.08 in   Overcast
5:15 PM 64.4 °F 64.4 °F 100% 29.82 in 2.5 mi NE 5.8 mph - 0.08 in   Overcast
5:35 PM 64.4 °F 64.4 °F 100% 29.82 in 5.0 mi ENE 5.8 mph - 0.11 in   Overcast
5:55 PM 64.4 °F 62.6 °F 94% 29.81 in 5.0 mi NNE 3.5 mph - 0.13 in   Overcast
6:15 PM 64.4 °F 64.4 °F 100% 29.81 in 5.0 mi NE 3.5 mph - 0.05 in   Overcast
6:35 PM 62.6 °F 62.6 °F 100% 29.81 in 3.0 mi ENE 5.8 mph - 0.14 in   Overcast
6:55 PM 62.6 °F 62.6 °F 100% 29.81 in 7.0 mi ENE 5.8 mph - 0.19 in   Overcast
7:15 PM 62.6 °F 62.6 °F 100% 29.80 in 9.0 mi Calm Calm - 0.07 in   Overcast
7:35 PM 62.6 °F 62.6 °F 100% 29.79 in 8.0 mi North 4.6 mph - 0.14 in Thunderstorm Thunderstorm
7:55 PM 62.6 °F 62.6 °F 100% 29.79 in 8.0 mi NNE 3.5 mph - 0.21 in   Mostly Cloudy
8:15 PM 62.6 °F 62.6 °F 100% 29.80 in 6.0 mi NW 3.5 mph - 0.08 in   Partly Cloudy
8:35 PM 64.4 °F 64.4 °F 100% 29.79 in 2.0 mi East 5.8 mph - 0.53 in Thunderstorm Thunderstorm
8:55 PM 64.4 °F 64.4 °F 100% 29.78 in 8.0 mi East 9.2 mph - 0.57 in   Overcast
9:15 PM 64.4 °F 64.4 °F 100% 29.79 in 2.5 mi East 6.9 mph - N/A   Overcast
9:35 PM 64.4 °F 64.4 °F 100% 29.78 in 0.5 mi ENE 4.6 mph - N/A   Overcast
9:55 PM 64.4 °F 64.4 °F 100% 29.77 in 0.5 mi Calm Calm - N/A   Overcast
10:15 PM 64.4 °F 64.4 °F 100% 29.76 in 0.5 mi ENE 3.5 mph - N/A   Overcast
10:35 PM 62.6 °F 62.6 °F 100% 29.76 in 0.5 mi ENE 3.5 mph - N/A   Overcast
10:55 PM 64.4 °F 64.4 °F 100% 29.76 in 0.5 mi Calm Calm - N/A   Overcast
11:15 PM 64.4 °F 64.4 °F 100% 29.76 in 0.2 mi Calm Calm - N/A   Overcast
11:35 PM 64.4 °F 64.4 °F 100% 29.76 in 0.2 mi Calm Calm - N/A   Overcast
11:55 PM 64.4 °F 64.4 °F 100% 29.76 in 0.2 mi Calm Calm - N/A   Overcast